Time,TemperatureF,DewpointF,PressureIn,WindDirection,WindDirectionDegrees,WindSpeedMPH,WindSpeedGustMPH,Humidity,HourlyPrecipIn,Conditions,Clouds,dailyrainin,SolarRadiationWatts/m^2,SoftwareType,DateUTC
2013-01-31 07:11:00,23.0,22.0,-100.00,West,261,1.0,8.0,95,0.00,,,0.00,0.000000,,2013-01-31 14:11:00,
2013-01-31 07:21:00,23.0,22.0,-100.00,West,261,1.0,8.0,95,0.00,,,0.00,0.000000,,2013-01-31 14:21:00,
2013-01-31 07:31:00,23.0,22.0,-100.00,West,261,1.0,8.0,95,0.00,,,0.00,0.000000,,2013-01-31 14:31:00,
2013-01-31 07:42:00,23.0,22.0,-100.00,West,261,1.0,8.0,95,0.00,,,0.00,0.000000,,2013-01-31 14:42:00,
2013-01-31 08:12:00,23.0,22.0,-100.00,SSW,192,2.0,4.0,95,0.00,,,0.00,0.000000,,2013-01-31 15:12:00,
2013-01-31 08:22:00,23.0,22.0,-100.00,SSW,192,2.0,4.0,95,0.00,,,0.00,0.000000,,2013-01-31 15:22:00,
2013-01-31 08:32:00,23.0,22.0,-100.00,SSW,192,2.0,4.0,95,0.00,,,0.00,0.000000,,2013-01-31 15:32:00,
2013-01-31 08:42:00,23.0,22.0,-100.00,SSW,192,2.0,4.0,95,0.00,,,0.00,0.000000,,2013-01-31 15:42:00,
2013-01-31 09:12:00,24.0,23.0,-100.00,South,189,1.0,4.0,95,0.00,,,0.00,2.000000,,2013-01-31 16:12:00,
2013-01-31 09:21:00,24.0,23.0,-100.00,South,189,1.0,4.0,95,0.00,,,0.00,2.000000,,2013-01-31 16:21:00,
2013-01-31 09:32:00,24.0,23.0,-100.00,South,189,1.0,4.0,95,0.00,,,0.00,2.000000,,2013-01-31 16:32:00,
2013-01-31 09:41:00,24.0,23.0,-100.00,South,189,1.0,4.0,95,0.00,,,0.00,2.000000,,2013-01-31 16:41:00,
2013-01-31 10:12:00,25.0,24.0,-100.00,WSW,251,2.0,7.0,96,0.00,,,0.00,5.000000,,2013-01-31 17:12:00,
2013-01-31 10:22:00,25.0,24.0,-100.00,WSW,251,2.0,7.0,96,0.00,,,0.00,5.000000,,2013-01-31 17:22:00,
2013-01-31 10:31:00,25.0,24.0,-100.00,WSW,251,2.0,7.0,96,0.00,,,0.00,5.000000,,2013-01-31 17:31:00,
2013-01-31 10:43:00,25.0,24.0,-100.00,WSW,251,2.0,7.0,96,0.00,,,0.00,5.000000,,2013-01-31 17:43:00,
2013-01-31 11:12:00,26.0,25.0,-100.00,WSW,239,2.0,7.0,95,0.00,,,0.00,7.000000,,2013-01-31 18:12:00,
2013-01-31 11:21:00,26.0,25.0,-100.00,WSW,239,2.0,7.0,95,0.00,,,0.00,7.000000,,2013-01-31 18:21:00,
2013-01-31 11:32:00,26.0,25.0,-100.00,WSW,239,2.0,7.0,95,0.00,,,0.00,7.000000,,2013-01-31 18:32:00,
2013-01-31 11:42:00,26.0,25.0,-100.00,WSW,239,2.0,7.0,95,0.00,,,0.00,7.000000,,2013-01-31 18:42:00,
2013-01-31 12:12:00,26.0,25.0,-100.00,WSW,252,3.0,6.0,95,0.00,,,0.00,9.000000,,2013-01-31 19:12:00,
2013-01-31 12:21:00,26.0,25.0,-100.00,WSW,252,3.0,6.0,95,0.00,,,0.00,9.000000,,2013-01-31 19:21:00,
2013-01-31 12:32:00,26.0,25.0,-100.00,WSW,252,3.0,6.0,95,0.00,,,0.00,9.000000,,2013-01-31 19:32:00,
2013-01-31 12:42:00,26.0,25.0,-100.00,WSW,252,3.0,6.0,95,0.00,,,0.00,9.000000,,2013-01-31 19:42:00,
2013-01-31 13:11:00,26.0,25.0,-100.00,WSW,257,4.0,8.0,95,0.00,,,0.00,11.000000,,2013-01-31 20:11:00,
2013-01-31 13:21:00,26.0,25.0,-100.00,WSW,257,4.0,8.0,95,0.00,,,0.00,11.000000,,2013-01-31 20:21:00,
2013-01-31 13:31:00,26.0,25.0,-100.00,WSW,257,4.0,8.0,95,0.00,,,0.00,11.000000,,2013-01-31 20:31:00,
2013-01-31 13:41:00,26.0,25.0,-100.00,WSW,257,4.0,8.0,95,0.00,,,0.00,11.000000,,2013-01-31 20:41:00,
2013-01-31 14:12:00,28.0,27.0,-100.00,WSW,242,3.0,9.0,94,0.00,,,0.00,16.000000,,2013-01-31 21:12:00,
2013-01-31 14:21:00,28.0,27.0,-100.00,WSW,242,3.0,9.0,94,0.00,,,0.00,16.000000,,2013-01-31 21:21:00,
2013-01-31 14:31:00,28.0,27.0,-100.00,WSW,242,3.0,9.0,94,0.00,,,0.00,16.000000,,2013-01-31 21:31:00,
2013-01-31 14:42:00,28.0,27.0,-100.00,WSW,242,3.0,9.0,94,0.00,,,0.00,16.000000,,2013-01-31 21:42:00,
2013-01-31 15:11:00,28.0,27.0,-100.00,WSW,247,3.0,10.0,94,0.00,,,0.00,13.000000,,2013-01-31 22:11:00,
2013-01-31 15:22:00,28.0,27.0,-100.00,WSW,247,3.0,10.0,94,0.00,,,0.00,13.000000,,2013-01-31 22:22:00,
2013-01-31 15:32:00,28.0,27.0,-100.00,WSW,247,3.0,10.0,94,0.00,,,0.00,13.000000,,2013-01-31 22:32:00,
2013-01-31 15:42:00,28.0,27.0,-100.00,WSW,247,3.0,10.0,94,0.00,,,0.00,13.000000,,2013-01-31 22:42:00,
2013-01-31 16:12:00,27.0,26.0,-100.00,WSW,242,2.0,10.0,95,0.00,,,0.00,11.000000,,2013-01-31 23:12:00,
2013-01-31 16:21:00,27.0,26.0,-100.00,WSW,242,2.0,10.0,95,0.00,,,0.00,11.000000,,2013-01-31 23:21:00,
2013-01-31 16:31:00,27.0,26.0,-100.00,WSW,242,2.0,10.0,95,0.00,,,0.00,11.000000,,2013-01-31 23:31:00,
2013-01-31 16:41:00,27.0,26.0,-100.00,WSW,242,2.0,10.0,95,0.00,,,0.00,11.000000,,2013-01-31 23:41:00,
2013-01-31 17:11:00,26.0,25.0,-100.00,WSW,257,2.0,9.0,96,0.00,,,0.00,5.000000,,2013-02-01 00:11:00,
2013-01-31 17:21:00,26.0,25.0,-100.00,WSW,257,2.0,9.0,96,0.00,,,0.00,5.000000,,2013-02-01 00:21:00,
2013-01-31 17:31:00,26.0,25.0,-100.00,WSW,257,2.0,9.0,96,0.00,,,0.00,5.000000,,2013-02-01 00:31:00,
2013-01-31 17:42:00,26.0,25.0,-100.00,WSW,257,2.0,9.0,96,0.00,,,0.00,5.000000,,2013-02-01 00:42:00,
2013-01-31 18:11:00,26.0,25.0,-100.00,SW,227,3.0,9.0,97,0.00,,,0.00,1.000000,,2013-02-01 01:11:00,
2013-01-31 18:21:00,26.0,25.0,-100.00,SW,227,3.0,9.0,97,0.00,,,0.00,1.000000,,2013-02-01 01:21:00,
2013-01-31 18:31:00,26.0,25.0,-100.00,SW,227,3.0,9.0,97,0.00,,,0.00,1.000000,,2013-02-01 01:31:00,
2013-01-31 18:41:00,26.0,25.0,-100.00,SW,227,3.0,9.0,97,0.00,,,0.00,1.000000,,2013-02-01 01:41:00,
2013-01-31 19:11:00,26.0,25.0,-100.00,WSW,255,3.0,7.0,97,0.00,,,0.00,0.000000,,2013-02-01 02:11:00,
2013-01-31 19:21:00,26.0,25.0,-100.00,WSW,255,3.0,7.0,97,0.00,,,0.00,0.000000,,2013-02-01 02:21:00,
2013-01-31 19:31:00,26.0,25.0,-100.00,WSW,255,3.0,7.0,97,0.00,,,0.00,0.000000,,2013-02-01 02:31:00,
2013-01-31 19:41:00,26.0,25.0,-100.00,WSW,255,3.0,7.0,97,0.00,,,0.00,0.000000,,2013-02-01 02:41:00,
2013-01-31 20:12:00,26.0,25.0,-100.00,SSW,201,0.0,7.0,97,0.00,,,0.00,0.000000,,2013-02-01 03:12:00,
2013-01-31 20:21:00,26.0,25.0,-100.00,SSW,201,0.0,7.0,97,0.00,,,0.00,0.000000,,2013-02-01 03:21:00,
2013-01-31 20:32:00,26.0,25.0,-100.00,SSW,201,0.0,7.0,97,0.00,,,0.00,0.000000,,2013-02-01 03:32:00,
2013-01-31 20:41:00,26.0,25.0,-100.00,SSW,201,0.0,7.0,97,0.00,,,0.00,0.000000,,2013-02-01 03:41:00,
2013-01-31 21:11:00,26.0,25.0,-100.00,WSW,245,1.0,4.0,97,0.00,,,0.00,0.000000,,2013-02-01 04:11:00,
2013-01-31 21:21:00,26.0,25.0,-100.00,WSW,245,1.0,4.0,97,0.00,,,0.00,0.000000,,2013-02-01 04:21:00,
2013-01-31 21:31:00,26.0,25.0,-100.00,WSW,245,1.0,4.0,97,0.00,,,0.00,0.000000,,2013-02-01 04:31:00,
2013-01-31 21:41:00,26.0,25.0,-100.00,WSW,245,1.0,4.0,97,0.00,,,0.00,0.000000,,2013-02-01 04:41:00,
2013-01-31 22:11:00,26.0,25.0,-100.00,South,176,0.0,4.0,97,0.00,,,0.00,0.000000,,2013-02-01 05:11:00,
2013-01-31 22:22:00,26.0,25.0,-100.00,South,176,0.0,4.0,97,0.00,,,0.00,0.000000,,2013-02-01 05:22:00,
2013-01-31 22:31:00,26.0,25.0,-100.00,South,176,0.0,4.0,97,0.00,,,0.00,0.000000,,2013-02-01 05:31:00,
2013-01-31 22:41:00,26.0,25.0,-100.00,South,176,0.0,4.0,97,0.00,,,0.00,0.000000,,2013-02-01 05:41:00,
2013-01-31 23:11:00,26.0,25.0,-100.00,SSW,207,1.0,3.0,97,0.00,,,0.00,0.000000,,2013-02-01 06:11:00,
2013-01-31 23:21:00,26.0,25.0,-100.00,SSW,207,1.0,3.0,97,0.00,,,0.00,0.000000,,2013-02-01 06:21:00,
2013-01-31 23:32:00,26.0,25.0,-100.00,SSW,207,1.0,3.0,97,0.00,,,0.00,0.000000,,2013-02-01 06:32:00,
2013-01-31 23:41:00,26.0,25.0,-100.00,SSW,207,1.0,3.0,97,0.00,,,0.00,0.000000,,2013-02-01 06:41:00,